Cincinnati, OH

10:58 AM EDT on September 15, 2019 (GMT -0400)
Cincinnati Municipal-Lunken

Weather History for KLUK - July, 2019

Change the Weather History Date:

Tuesday, July 30, 2019

  Actual Average Record
Temperature  
Mean Temperature 74 °F -  
Max Temperature 84 °F 84 °F 105 °F (1999)
Min Temperature 66 °F 65 °F 50 °F (1997)
Cooling Degree Days 9    
Growing Degree Days 24 (Base 50)    
Moisture  
Dew Point 68 °F    
Average Humidity 86    
Maximum Humidity 96    
Minimum Humidity 69    
Precipitation  
Precipitation 0.83 in - - ()
Sea Level Pressure  
Sea Level Pressure 30.00 in    
Wind  
Wind Speed 6 mph (South)    
Max Wind Speed 28 mph    
Max Gust Speed 37 mph    
Visibility 8 miles    
Events Rain , Thunderstorm    
Averages and records for this station are not official NWS values.
T = Trace of Precipitation, MM = Missing Value Source: NWS Daily Summary

Daily Weather History Graph

Daily Weather History Graph

Search for Another Location

Airport or City:

Astronomy

Jul. 30, 2019 Rise Set
Actual Time 6:36 AM EDT 8:51 PM EDT
Civil Twilight 6:06 AM EDT 9:21 PM EDT
Nautical Twilight 5:29 AM EDT 9:58 PM EDT
Astronomical Twilight 4:48 AM EDT 10:38 PM EDT
Moon 4:44 AM EDT (7/30) 7:54 PM EDT (7/30)
Length of Visible Light 15h 15m
Length of Day
14h 15m
Waning Crescent, 3% of the Moon is Illuminated
Jul 30
Waning Crescent
Jul 31
New
Aug 7
First Quarter
Aug 15
Full
Aug 23
Last Quarter

Hourly Weather History & Observations

Time (EDT) Temp. Heat Index Dew Point Humidity Pressure Visibility Wind Dir Wind Speed Gust Speed Precip Events Conditions
12:53 AM 73.0 °F - 69.1 °F 87% 29.98 in 8.0 mi SSW 10.4 mph - 0.01 in Rain Light Rain
1:53 AM 72.0 °F - 69.1 °F 91% 29.97 in 10.0 mi WSW 3.5 mph - 0.01 in   Overcast
2:53 AM 72.0 °F - 69.1 °F 91% 29.96 in 10.0 mi SW 5.8 mph - 0.00 in   Mostly Cloudy
3:53 AM 72.0 °F - 68.0 °F 87% 29.96 in 10.0 mi SW 6.9 mph - 0.00 in   Overcast
4:53 AM 71.1 °F - 68.0 °F 90% 29.97 in 10.0 mi South 3.5 mph - N/A   Overcast
5:53 AM 70.0 °F - 66.9 °F 90% 29.98 in 10.0 mi Calm Calm - N/A   Partly Cloudy
6:50 AM 69.8 °F - 66.2 °F 88% 30.01 in 10.0 mi SE 3.5 mph - N/A   Mostly Cloudy
6:53 AM 69.1 °F - 68.0 °F 96% 30.00 in 10.0 mi SE 3.5 mph - N/A   Mostly Cloudy
7:53 AM 72.0 °F - 69.1 °F 91% 29.99 in 10.0 mi South 6.9 mph - N/A   Scattered Clouds
8:03 AM 72.0 °F - 68.0 °F 87% 30.01 in 10.0 mi SSE 6.9 mph - N/A   Mostly Cloudy
8:53 AM 73.9 °F - 69.1 °F 85% 30.01 in 10.0 mi ESE 3.5 mph - N/A   Mostly Cloudy
9:44 AM 75.9 °F - 70.0 °F 82% 30.03 in 10.0 mi SE 3.5 mph - N/A   Overcast
9:53 AM 75.0 °F - 70.0 °F 84% 30.02 in 10.0 mi South 5.8 mph - N/A   Overcast
10:53 AM 75.9 °F - 71.1 °F 85% 30.03 in 10.0 mi South 3.5 mph - N/A   Overcast
11:53 AM 77.0 °F - 71.1 °F 82% 30.02 in 9.0 mi South 4.6 mph - N/A   Overcast
12:53 PM 80.1 °F 83.8 °F 72.0 °F 76% 30.01 in 9.0 mi Variable 3.5 mph - N/A   Mostly Cloudy
12:55 PM 80.1 °F 83.6 °F 71.1 °F 74% 30.02 in 9.0 mi South 3.5 mph - N/A   Mostly Cloudy
1:53 PM 80.1 °F 83.8 °F 72.0 °F 76% 29.99 in 10.0 mi SSE 9.2 mph - N/A   Mostly Cloudy
2:33 PM 82.9 °F 88.0 °F 72.0 °F 69% 29.99 in 10.0 mi SSE 10.4 mph - N/A Thunderstorm Thunderstorm
2:53 PM 82.9 °F 88.0 °F 72.0 °F 69% 29.98 in 10.0 mi SE 11.5 mph - N/A Thunderstorm Thunderstorm
3:20 PM 81.0 °F 84.9 °F 71.1 °F 72% 29.99 in 10.0 mi Variable 5.8 mph - N/A Thunderstorm Thunderstorm
3:28 PM 75.0 °F - 64.9 °F 71% 29.98 in 2.5 mi North 26.5 mph 35.7 mph 0.01 in Rain , Thunderstorm Light Thunderstorms and Rain
3:41 PM 68.0 °F - 66.0 °F 93% 30.01 in 2.5 mi NW 27.6 mph 36.8 mph 0.24 in Rain , Thunderstorm Heavy Thunderstorms and Rain
3:53 PM 70.0 °F - 63.0 °F 78% 30.01 in 2.0 mi West 19.6 mph 34.5 mph 0.44 in Rain , Thunderstorm Heavy Thunderstorms and Rain
4:00 PM 68.0 °F - 63.0 °F 84% 30.00 in 2.0 mi Variable 4.6 mph 24.2 mph 0.08 in Rain , Thunderstorm Heavy Thunderstorms and Rain
4:10 PM 66.9 °F - 63.0 °F 87% 30.00 in 3.0 mi WSW 6.9 mph 19.6 mph 0.24 in Rain , Thunderstorm Light Thunderstorms and Rain
4:33 PM 66.9 °F - 64.0 °F 90% 29.97 in 6.0 mi Variable 3.5 mph - 0.37 in Rain , Thunderstorm Light Thunderstorms and Rain
4:53 PM 66.9 °F - 64.9 °F 93% 29.98 in 10.0 mi West 5.8 mph - 0.37 in   Scattered Clouds
5:53 PM 68.0 °F - 66.9 °F 96% 30.00 in 9.0 mi SSE 3.5 mph - N/A   Partly Cloudy
6:53 PM 69.1 °F - 68.0 °F 96% 29.99 in 10.0 mi Calm Calm - N/A   Clear
7:53 PM 69.1 °F - 68.0 °F 96% 29.98 in 10.0 mi SSW 3.5 mph - N/A   Partly Cloudy
8:53 PM 69.1 °F - 68.0 °F 96% 30.01 in 8.0 mi Calm Calm - N/A   Partly Cloudy
9:53 PM 69.1 °F - 68.0 °F 96% 30.02 in 9.0 mi Calm Calm - N/A   Partly Cloudy
10:53 PM 68.0 °F - 66.9 °F 96% 30.03 in 6.0 mi Calm Calm - N/A   Partly Cloudy
11:53 PM 69.1 °F - 68.0 °F 96% 30.03 in 7.0 mi Calm Calm - N/A   Overcast